This is the latest recevied weather packets stored in our database for station/object SP1BMW-13. If no packets are shown the sender has not sent any weather packets the latest 10 day(s).
| Time | Temp. | Humidity | Pressure | Rain* | Wind** | Luminosity | Snow |
|---|---|---|---|---|---|---|---|
| 1788016654 | 23.89° C | 47% | 1009.5 hPa | 0 mm | 0.89 m/s, 226° | 44 W/m² | - |
| 1788016593 | 23.89° C | 48% | 1009.7 hPa | 0 mm | 0.45 m/s, 283° | 44 W/m² | - |
| 1788016532 | 23.89° C | 47% | 1009.6 hPa | 0 mm | 0.89 m/s, 247° | 47 W/m² | - |
| 1788016474 | 24.44° C | 47% | 1009.5 hPa | 0 mm | 0.45 m/s, 323° | 49 W/m² | - |
| 1788016412 | 24.44° C | 49% | 1009.4 hPa | 0 mm | 0 m/s | 52 W/m² | - |
| 1788016352 | 24.44° C | 48% | 1009.4 hPa | 0 mm | 0 m/s | 53 W/m² | - |
| 1788016293 | 24.44° C | 47% | 1009.5 hPa | 0 mm | 0 m/s | 53 W/m² | - |
| 1788016232 | 24.44° C | 46% | 1009.4 hPa | 0 mm | 0.45 m/s, 122° | 52 W/m² | - |
| 1788016173 | 24.44° C | 46% | 1009.2 hPa | 0 mm | 0.89 m/s, 206° | 51 W/m² | - |
| 1788016112 | 24.44° C | 46% | 1009.4 hPa | 0 mm | 0.89 m/s, 10° | 53 W/m² | - |
| 1788016052 | 24.44° C | 49% | 1009.5 hPa | 0 mm | 0.45 m/s, 154° | 64 W/m² | - |
| 1788015992 | 24.44° C | 47% | 1009.6 hPa | 0 mm | 0 m/s | 77 W/m² | - |
| 1788015932 | 24.44° C | 47% | 1009.4 hPa | 0 mm | 0.45 m/s, 104° | 91 W/m² | - |
| 1788015872 | 24.44° C | 47% | 1009.4 hPa | 0 mm | 0 m/s | 103 W/m² | - |
| 1788015812 | 24.44° C | 47% | 1009.4 hPa | 0 mm | 0.89 m/s, 345° | 118 W/m² | - |
| 1788015753 | 24.44° C | 47% | 1009.7 hPa | 0 mm | 0.89 m/s, 282° | 132 W/m² | - |
| 1788015692 | 24.44° C | 48% | 1009.5 hPa | 0 mm | 0 m/s | 142 W/m² | - |
| 1788015632 | 24.44° C | 47% | 1009.4 hPa | 0 mm | 0 m/s | 145 W/m² | - |
| 1788015573 | 24.44° C | 46% | 1009.3 hPa | 0 mm | 1.34 m/s, 301° | 142 W/m² | - |
| 1788015512 | 24.44° C | 47% | 1009.5 hPa | 0 mm | 0.89 m/s, 283° | 134 W/m² | - |
| 1788015452 | 24.44° C | 47% | 1009.5 hPa | 0 mm | 0.45 m/s, 211° | 120 W/m² | - |
| 1788015392 | 25° C | 46% | 1009.5 hPa | 0 mm | 0.89 m/s, 307° | 117 W/m² | - |
| 1788015332 | 25° C | 46% | 1009.5 hPa | 0 mm | 0 m/s | 117 W/m² | - |
| 1788015272 | 25° C | 45% | 1009.4 hPa | 0 mm | 0.45 m/s, 256° | 119 W/m² | - |
| 1788015214 | 25° C | 45% | 1009.5 hPa | 0 mm | 0.89 m/s, 265° | 119 W/m² | - |
* Rain latest hour (hover to see other rain measurements)
** Current wind speed in m/s (hover to see current wind gust speed)